Regional Weather Roundup
Issued by NWS Goodland, KS

Home | Current Version | Previous Version | Text Only | Print | Product List | Glossary Off
Versions: 1 2 3 4 5 6 7 8 9 10 11 12 13 14 15 16 17 18 19 20 21 22 23 24 25 26 27 28 29 30 31 32 33 34 35 36 37 38 39 40 41 42 43 44 45 46 47 48 49 50

000
ASUS43 KGLD 040508
RWRGLD

GOODLAND FORECAST AREA HOURLY WEATHER ROUNDUP
NATIONAL WEATHER SERVICE GOODLAND KS
1100 PM MDT MON AUG 03 2015

...OFFICIAL OBSERVATIONS...

CITY           SKY/WX    TMP DP  RH WIND       PRES   REMARKS
GOODLAND KS    MOCLDY    71  57  61 CALM      30.01S
HILL CITY KS   MOCLDY    79  67  66 S6        29.94R
IMPERIAL NEB   PTCLDY    68  57  68 N6        29.99R
MCCOOK NEB     CLOUDY    74  71  91 E7        29.95S
AKRON CO       PTCLDY    62  47  57 SW7       30.06F
BURLINGTON CO  CLOUDY    67  59  75 S7        30.05R
LIMON CO       CLOUDY    56  55  97 CALM      30.12S
$$

...UNOFFICIAL OBSERVATIONS...

CITY           SKY/WX    TMP DP  RH WIND       PRES   REMARKS
COLBY KS       CLEAR     73  64  73 W6        30.00S
NORTON KS      CLEAR     73  64  73 NE5       29.94S
SHARON SPRINGS   N/A     70  59  68 S10         N/A
KIT CARSON CO    N/A     63  57  81 MISG        N/A
YUMA CO          N/A     60  54  80 CALM        N/A
$$


USA.gov is the U.S. government's official web portal to all federal, state and local government web resources and services.